KG5VSR Weather Reports


time (UTC)temp
F
wind
direction
speed
knots
gust
knots
rain 1hr
in
rain 24hr
in
rain mn
in
humidity
%
barometer
mb
20260901130940 84 224 0.9 0.9 0.00 0.00 0.00 73 1018.1
20260901123940 81 259 0.0 0.0 0.00 0.00 0.00 77 1017.5
20260901120940 79 163 0.0 0.0 0.00 0.00 0.00 79 1017.0
20260901113938 79 266 0.0 0.0 0.00 0.00 0.00 79 1016.9
20260901110938 80 244 0.0 0.0 0.00 0.00 0.00 76 1016.8
20260901103935 80 257 0.0 0.0 0.00 0.00 0.00 75 1016.6
20260901100931 81 276 0.0 0.0 0.00 0.00 0.00 73 1016.8
20260901093929 82 202 0.0 0.0 0.00 0.00 0.00 70 1017.0
20260901090929 82 258 0.0 0.0 0.00 0.00 0.00 70 1016.7
20260901083925 83 174 0.0 0.0 0.00 0.00 0.00 68 1016.6
20260901080920 84 228 0.0 0.0 0.00 0.00 0.00 66 1016.5
20260901073917 85 233 0.0 0.0 0.00 0.00 0.00 64 1016.6
20260901070913 86 165 0.9 1.7 0.00 0.00 0.00 62 1016.3
20260901063909 87 83 0.0 0.0 0.00 0.00 0.00 60 1016.3
20260901060907 87 104 0.9 1.7 0.00 0.00 0.00 58 1016.0
20260901053905 88 55 0.9 0.9 0.00 0.00 0.00 56 1015.9
20260901050903 87 344 0.0 0.9 0.00 0.00 0.00 55 1015.6
20260901043858 86 334 0.0 0.0 0.00 0.00 0.00 58 1015.5
20260901040856 85 299 0.0 0.0 0.00 0.00 0.00 60 1015.2
20260901033854 86 299 0.0 0.0 0.00 0.00 0.00 58 1015.2
20260901030854 87 299 0.0 0.0 0.00 0.00 0.00 53 1015.2
20260901023854 89 299 0.0 0.0 0.00 0.00 0.00 51 1014.7
20260901020849 90 336 0.0 0.0 0.00 0.00 0.00 48 1014.5
20260901013848 92 261 0.0 0.0 0.00 0.00 0.00 45 1014.1
20260901010848 94 202 0.0 0.9 0.00 0.00 0.00 42 1013.8
20260901003844 96 198 0.9 1.7 0.00 0.00 0.00 38 1013.6
20260901000840 98 316 0.0 0.0 0.00 0.00 0.00 37 1013.6
20260831233837 99 272 0.9 0.9 0.00 0.00 0.00 36 1013.7
20260831230835 99 58 0.9 0.9 0.00 0.00 0.00 35 1013.6
20260831223833 100 75 2.6 2.6 0.00 0.00 0.00 35 1013.8
20260831220829 100 339 0.0 0.9 0.00 0.00 0.00 37 1014.4
20260831213827 97 202 0.9 1.7 0.00 0.00 0.00 39 1014.5
20260831210826 98 275 0.0 0.0 0.00 0.00 0.00 38 1015.0
20260831203823 101 209 1.7 1.7 0.00 0.00 0.00 35 1015.1
20260831200818 102 69 2.6 5.2 0.00 0.00 0.00 37 1015.5
20260831193817 100 197 0.9 0.9 0.00 0.00 0.00 40 1015.8
20260831190814 99 148 7.0 11.3 0.00 0.00 0.00 39 1016.3
20260831183810 100 262 1.7 2.6 0.00 0.00 0.00 40 1016.6
20260831180806 99 56 1.7 1.7 0.00 0.00 0.00 40 1016.9
20260831173804 98 202 1.7 2.6 0.00 0.00 0.00 44 1017.5
20260831170800 96 271 0.0 0.9 0.00 0.00 0.00 49 1017.8
20260831163759 94 281 0.0 0.0 0.00 0.00 0.00 52 1018.0
20260831160755 93 183 4.3 5.2 0.00 0.00 0.00 53 1017.9
20260831153753 90 212 1.7 1.7 0.00 0.00 0.00 58 1017.9
20260831150753 89 266 0.9 0.9 0.00 0.00 0.00 64 1018.0
20260831143753 85 221 0.9 0.9 0.00 0.00 0.00 69 1017.8
20260831140752 84 153 1.7 1.7 0.00 0.00 0.00 72 1017.6
20260831133748 83 202 1.7 1.7 0.00 0.00 0.00 73 1017.4